Regional Weather Roundup
Issued by NWS Wakefield, VA

Home | Current Version | Previous Version | Text Only | Print | Product List | Glossary On
Versions: 1 2 3 4 5 6 7 8 9 10 11 12 13 14 15 16 17 18 19 20 21 22 23 24 25 26 27 28
000
ASUS41 KAKQ 250910
RWRAKQ

REGIONAL WEATHER ROUNDUP
NATIONAL WEATHER SERVICE WAKEFIELD VA
500 AM EDT SAT OCT 25 2014

Note: "fair" indicates few or no clouds below 12,000 feet with no
significant weather and/or obstructions to visibility. * = Denotes
station may not report precipitation (e.g., rain,snow,etc.),
thunder or fog.

VAZ042-051-052>054-056-251000-
NORTHERN VIRGINIA

CITY           SKY/WX    TMP DP  RH WIND       PRES   REMARKS
WASH NATIONAL  CLEAR     52  38  58 N5        29.96S
DULLES         CLEAR     48  38  68 NW8       29.96F
FORT BELVOIR   CLEAR     38  37  96 VRB2      29.95F
QUANTICO       CLEAR     43  40  89 NW6       29.97S
FREDERICKSBRG* CLEAR     39  39 100 CALM      29.96F
STAFFORD*      CLEAR    N/A N/A N/A CALM      30.00S FOG
WARRENTON      CLEAR     34  34 100 CALM      29.96S
CULPEPER*      CLEAR     34  34 100 CALM      29.98S
MANASSAS*      CLEAR     37  37 100 CALM      29.96F
LEESBURG*      CLEAR     54  43  66 CALM      29.96F
WINCHESTER     CLEAR     43  34  70 CALM      29.97S
FRONT ROYAL*   SUNNY     43  36  75 S7        29.96F
LURAY*         SUNNY     37  37 100 CALM      29.99F
$$

VAZ048-049-060>072-079>083-251000-
CENTRAL AND SOUTH CENTRAL VIRGINIA...AND NORTH CENTRAL NORTH CAROLINA

CITY           SKY/WX    TMP DP  RH WIND       PRES   REMARKS
RICHMOND       CLEAR     43  39  86 CALM      29.97R
CHESTERFIELD*    N/A    N/A N/A N/A MISG        N/A
PETERSBURG*    CLEAR     37  36  97 CALM      29.98R FOG
HANOVER        CLEAR     38  38 100 CALM      29.99R FOG
TAPPAHANNOCK*  CLEAR     39  37  89 CALM      29.97S
CHARLOTTSVILLE CLEAR     48  33  56 SW6       29.97S
ORANGE*        CLEAR     36  34  93 CALM      29.98F
LOUISA*        CLEAR     36  36 100 CALM      29.96S
FARMVILLE*     CLEAR     37  37 100 CALM      29.97S
CREWE*         SUNNY     40  39  95 CALM      29.97S
FORT PICKETT*  SUNNY     41  41  99 CALM      29.97S
LUNENBURG*     SUNNY     46  43  88 N6        29.97R
SOUTH HILL*    CLEAR     46  46 100 N6        30.01S
LAWRENCEVILLE* SUNNY     44  44  99 CALM      29.96S
ROANOKE RAPIDS SUNNY     36  36 100 CALM      29.98R
RALEIGH        PTCLDY    43  41  93 CALM      29.97S
$$

VAZ088>098-251000-
SOUTHEAST VIRGINIA

CITY           SKY/WX    TMP DP  RH WIND       PRES   REMARKS
NORFOLK        PTCLDY    58  44  60 N8        29.95R
VIRGINIA BEACH CLEAR     49  44  83 SW6       29.94R
NORFOLK NAVAL  CLEAR     54  43  66 NW6       29.97R
WEST POINT*    CLEAR     38  35  91 CALM      29.98S
NEWPORT NEWS   CLEAR     45  41  86 CALM      29.96R
LANGLEY AFB    CLEAR     45  45  99 W3        29.96R
FORT EUSTIS    CLEAR     52  40  64 N3        29.95R
WILLIAMSBURG*  CLEAR     48  46  93 N5        29.97R
HR EXEC AP*    MOSUNNY   36  32  87 CALM      29.98R
FRANKLIN*      CLEAR     39 N/A N/A CALM      29.97S
WAKEFIELD      CLEAR     41  39  93 CALM      29.97R
$$

VAZ020-022-025-037-045-251000-
WEST CENTRAL AND SOUTHWEST VIRGINIA

CITY           SKY/WX    TMP DP  RH WIND       PRES   REMARKS
STAUNTON*      CLEAR     32  29  90 CALM      30.02F
HOT SPRINGS VA CLEAR     43  35  73 NW12      30.00S
LYNCHBURG      CLEAR     37  35  92 CALM      30.00S
DANVILLE       CLEAR     42  39  89 SW5       29.99S
SOUTH BOSTON*  NOT AVBL
MARTINSVILLE   CLEAR     34  34 100 CALM      30.02F
ROANOKE        CLEAR     46  37  71 SE3       30.03F
BLACKSBURG     CLEAR     39  39 100 CALM      30.06R
DUBLIN*        CLEAR     39  37  93 W5        30.06R
MARION*        CLEAR     38  36  91 W7        30.08S
HILLSVILLE*    CLEAR     45  36  70 W6        30.04S
RICHLANDS*     SUNNY     45  40  82 S3        30.06S
WISE*          CLEAR     43  36  75 SW3       30.08S
ABINGDON*      CLEAR     38  37  97 CALM      30.07S
$$

MDZ021>025-VAZ099-100-251000-
SOUTHERN MARYLAND AND THE DELMARVA PENINSULA

CITY           SKY/WX    TMP DP  RH WIND       PRES   REMARKS
PATUXENT RIVER CLEAR     52  41  66 NW8       29.95R
BAY BRIDGE APT   N/A     52  41  66 W5        29.94S
LEONARDTOWN    CLEAR     41  36  81 CALM      29.97R
DOVER          CLEAR     47  41  77 W8        29.90R
GEORGETOWN     CLEAR     49  40  71 CALM      29.93S
EASTON         CLEAR     51  45  80 CALM      29.97S
CAMBRIDGE      CLEAR     55  43  62 NW5       29.93S
SALISBURY      CLEAR     50  40  68 NW3       29.92S
OCEAN CITY     CLEAR     49  40  71 NW9       29.91S
WALLOPS ISLAND CLEAR     51  43  74 NW8       29.93R
ACCOMACK*      CLEAR     48  43  81 NW5       29.94S
$$

NCZ012>017-030>032-251000-
EASTERN NORTH CAROLINA

CITY           SKY/WX    TMP DP  RH WIND       PRES   REMARKS
ELIZABETH CITY CLEAR     50  44  80 NW7       29.95S
AHOSKIE*       CLEAR     41  40  95 CALM      29.97S
EDENTON*       CLEAR     45  44  95 CALM      29.96R
CURRITUCK*     CLEAR     48  44  86 CALM      29.95S
KILL DEVIL HLS CLEAR     55  48  80 NW3       29.93S
MANTEO         CLEAR     54  49  83 NW3       29.95R
CAPE HATTERAS  CLEAR     52  51  97 N3        29.95R
TARBORO*       SUNNY     40  39  96 CALM      29.97R
GOLDSBORO      CLEAR     47  46  98 CALM      29.94F
WASHINGTON     CLEAR     45  44  97 CALM      29.96R
GREENVILLE     MIX PCPN  43  43 100 CALM      29.98R
NEW BERN       CLEAR     48  45  89 S3        29.97S
WILMINGTON     CLEAR     46  45  96 CALM      29.96S
$$

VAZ048-251000-
ELSEWHERE

CITY           SKY/WX    TMP DP  RH WIND       PRES   REMARKS
HARRISBURG PA  CLEAR     44  39  82 CALM      29.92S
BALTIMORE      CLEAR     46  38  73 W5        29.94S
ANNAPOLIS      CLEAR     48  38  68 W3        29.94S
ANDREWS AFB    CLEAR     50  38  64 NW3       29.94F
WILMINGTON DE  CLEAR     48  39  71 SW5       29.92S
PHILADELPHIA   CLEAR     48  36  63 W3        29.92R
WILDWOOD NJ*   CLEAR     55  41  58 NW7       29.92R
ATLANTIC CITY  CLEAR     43  38  82 NW7       29.90S
HENDERSON NC   CLEAR     50  38  62 NW5       29.97S
GREENSBORO     CLEAR     42  38  85 CALM      29.99R
ROCKY MOUNT    CLEAR     42  41  96 SW3       29.96S
FAYETTEVILLE   CLEAR     45  43  93 S7        29.97R
CHARLOTTE      CLEAR     45  40  82 N6        30.01S
$$

VAZ100-251000-
MARINE

STATION/POSITION TIME  TEMP    WIND        PRES    WAVE   SWELL
                       AIR SEA DIR/SP/G            HT/PER HT/PER
                 (UTC) (F)     (DEG/KT/KT) (MB)    (FT/S) (FT/S)
44066 TX TWR #4  0900   60 65  330/ 19/ 23 1009.5S   4/ 4   2/11
CAPE MAY NJ      0900   57 62  310/  6/ 11 1012.2S
LEWES DE         0900   56 61  310/ 12/ 14 1012.6S
15NM E FENWICK I 0900   61 64  330/ 19/ 23 1011.9S   4/ 5   2/10
OCEAN-CITY-INLET 0900   53 60  340/ 11/ 15 1012.3S
WACHAPREAGUE VA  0900   52 59  290/  1/  5 1013.5F
THOMAS POINT MD  0900   53 61  300/  8/  9 1014.9S
GOOSES REEF MD   0900   58     340/ 12/ 14 1014.3R
COVE POINT MD    0900   58     350/ 17/ 19 1013.7S
SOLOMONS ISLAND  0900      63                N/A
BISHOPS HEAD MD  0900   52 57  320/  6/  7 1013.1R
PINEY POINT MD   0900          350/ 11/ 12   N/A
POTOMAC MD       0900   57     350/ 12/ 14 1013.4R
CAMBRIDGE MD     0900   56 60  300/  7/  8 1013.4S
LEWISETTA VA     0900   57 59  320/  7/  9 1013.8S
RAPPAHANNOCK LGT 0900          340/ 18/ 20 1014.1R
STINGRAY PT      0900   58     340/ 12/ 14 1014.5S
YORK RVR RNG VA  0900   57     360/ 13/ 15 1013.5R
YORKTOWN VA      0900   56 64  320/  9/ 11 1013.9R
JAMESTOWN VA     0900   54     340/  4/  6   N/A
DOMINION TERM VA 0900   57     350/  4/  8 1014.1S
KIPTOPEKE VA     0900      66   10/  7/  8   N/A
CHES BAY BRIDGE  0900   60 64  350/ 13/ 14 1013.4R
CHESAPEAKE LGHT  0800   61     340/ 17/ 19 1014.2S
WILLOUBY STN VA  0900   56     350/  8/ 10 1012.7R
S CRANEY ISL VA  0900          290/  4/  6 1013.9S
CAPE HENRY BUOY  0900      67                N/A     3/10
1ST LANDING BUOY 0900   61     350/ 14/ 16 1013.4R
CAPE CHARLES BUO 0900      66                N/A     2/10   2/10
64NM E OF VA BCH 0900   63 66  330/ 12/ 16 1012.6S   3/ 5   2/ 9
DUCK PIER NC     0900   58 65  330/  6/  7 1012.8S
44100 DUCK FRF   0900      67                N/A     3/10
44056 DUCK FRF   0900                        N/A     3/ 9
OREGON INLET NC  0900   56 64  290/  4/  4 1013.7S
HATTERAS NC      0900   62 65  320/  5/  7 1014.2S
DIAMOND SHLS NC  0900   65     330/ 10/ 12 1014.0S   3/ 9   2/ 9
CAPE LOOKOUT NC  0800   61     320/  8/  9 1014.1F
$$



USA.gov is the U.S. government's official web portal to all federal, state and local government web resources and services.